Total_Precipitation_Accumulation
0.80 0.78 0.74 1.06 1.16 1.04 1.20 1.77 1.84 2.38 2.32 1.22 0.54 0.47 0.55 0.45 0.32 0.17 0.10 0.01 0.02 0.19 0.33 0.08 0.05 0.17 0.24 0.15 0.23 0.45 0.70 0.66 0.15 0.07 0.07 0.05 0.02 0.00 0.00 0.00 0.00 0.03 0.04 0.09 0.23
0.58 0.70 0.61 0.67 0.87 1.17 1.22 1.40 1.34 1.75 2.69 1.20 0.53 0.39 0.38 0.27 0.28 0.20 0.03 0.05 0.23 0.49 0.33 0.20 0.17 0.27 0.37 0.18 0.42 0.41 0.27 0.39 0.07 0.04 0.08 0.13 0.15 0.04 0.02 0.02 0.03 0.15 0.24 0.30 0.33
0.49 0.54 0.54 0.61 0.80 0.65 0.75 0.94 1.20 1.66 2.64 2.03 0.84 0.40 0.39 0.25 0.13 0.04 0.13 0.15 0.25 0.51 0.23 0.16 0.20 0.35 0.37 0.33 0.30 0.23 0.14 0.03 0.07 0.13 0.18 0.30 0.25 0.06 0.13 0.13 0.01 0.06 0.30 0.51 0.76
0.51 0.50 0.51 0.46 0.59 0.64 0.60 0.69 1.00 1.25 2.41 3.44 1.53 0.51 0.55 0.38 0.09 0.18 0.31 0.16 0.41 0.94 0.69 0.40 0.35 0.52 0.35 0.26 0.11 0.15 0.05 0.01 0.15 0.44 0.36 0.51 0.31 0.22 0.20 0.12 0.05 0.13 0.28 0.48 0.63
0.48 0.46 0.43 0.37 0.40 0.46 0.61 0.65 0.75 1.01 2.17 3.75 1.75 0.80 0.65 0.35 0.07 0.15 0.20 0.07 0.17 0.61 0.68 0.54 0.40 0.56 0.32 0.11 0.20 0.13 0.05 0.02 0.15 0.78 0.54 0.43 0.54 0.39 0.21 0.08 0.09 0.26 0.58 0.66 0.69
0.45 0.51 0.48 0.44 0.41 0.45 0.52 0.50 0.63 1.07 2.39 3.51 1.72 1.03 0.54 0.17 0.00 0.01 0.04 0.13 0.09 0.33 0.60 0.80 0.41 0.57 0.41 0.23 0.24 0.14 0.10 0.06 0.11 0.58 0.65 0.60 0.61 0.58 0.29 0.17 0.12 0.27 0.37 0.54 0.73
0.62 0.62 0.60 0.60 0.69 0.80 0.83 0.75 0.81 1.16 3.04 3.23 1.43 1.13 0.56 0.09 0.01 0.01 0.05 0.09 0.16 0.24 0.44 0.53 0.75 0.95 0.88 0.47 0.20 0.18 0.20 0.24 0.12 0.18 0.57 0.81 0.74 0.64 0.38 0.24 0.14 0.15 0.24 0.44 0.71
0.73 0.86 0.80 0.78 0.78 1.02 1.25 1.48 1.28 1.48 2.89 2.40 1.74 1.50 0.52 0.06 0.02 0.01 0.03 0.11 0.15 0.38 0.72 0.96 1.01 0.99 1.16 0.85 0.36 0.45 0.38 0.32 0.13 0.08 0.23 0.93 0.93 0.79 0.62 0.50 0.27 0.09 0.09 0.18 0.37
0.69 0.81 1.04 1.43 1.46 1.46 1.72 1.87 1.68 2.34 2.83 2.39 1.88 1.25 0.43 0.08 0.06 0.01 0.03 0.12 0.20 0.44 0.82 1.35 1.54 1.51 1.17 1.40 0.92 0.73 0.48 0.10 0.10 0.11 0.16 0.49 0.77 0.91 0.94 0.78 0.49 0.19 0.07 0.12 0.19
0.81 0.83 1.09 1.33 1.29 1.22 1.47 1.87 2.20 2.65 2.51 2.20 1.70 1.19 0.34 0.05 0.05 0.06 0.08 0.17 0.29 0.66 1.35 1.79 1.95 1.77 1.60 1.63 1.09 0.47 0.39 0.14 0.11 0.16 0.23 0.23 0.38 0.84 1.22 0.97 0.69 0.34 0.12 0.12 0.12
1.08 1.08 1.06 1.11 1.19 1.46 1.96 2.39 2.45 2.92 2.52 1.61 1.11 0.29 0.13 0.08 0.17 0.22 0.16 0.27 0.47 1.23 1.44 2.03 2.70 2.04 1.10 0.63 0.47 0.31 0.27 0.19 0.06 0.17 0.15 0.08 0.09 0.46 1.17 1.16 0.78 0.48 0.18 0.10 0.10
0.94 1.03 1.09 1.22 1.48 1.91 2.58 2.14 1.45 1.41 1.68 0.95 0.45 0.16 0.30 0.34 0.41 0.65 0.33 0.43 0.61 1.12 1.16 2.03 1.92 0.97 0.59 0.65 0.77 0.49 0.32 0.19 0.10 0.20 0.27 0.11 0.11 0.19 0.76 1.08 0.94 0.70 0.22 0.08 0.07
1.31 1.53 1.97 1.65 1.74 2.07 2.01 2.09 1.21 1.11 1.94 1.04 0.51 0.50 0.47 0.75 0.53 1.05 0.53 0.53 0.42 1.09 1.00 1.34 1.03 1.02 1.29 1.39 1.19 0.50 0.31 0.21 0.15 0.32 0.42 0.23 0.29 0.29 0.42 0.77 0.81 0.77 0.36 0.09 0.04
1.57 1.94 2.94 2.07 2.27 1.87 2.20 2.14 1.53 1.96 2.60 1.15 0.95 1.00 0.92 1.30 0.86 0.83 0.65 0.67 0.70 1.23 0.79 1.09 0.84 1.06 1.76 1.72 1.36 0.90 0.34 0.32 0.39 1.00 1.03 0.46 0.56 0.39 0.19 0.36 0.45 0.57 0.44 0.17 0.07
1.25 1.54 2.09 2.57 2.90 2.53 2.29 2.29 2.16 2.59 2.40 1.29 1.21 1.25 1.30 1.37 1.11 0.98 0.82 0.98 1.01 1.34 1.11 1.34 0.90 0.75 1.43 1.22 1.48 1.19 0.69 0.37 0.62 1.13 1.01 0.54 0.83 0.44 0.15 0.17 0.21 0.34 0.44 0.22 0.04
1.14 1.34 1.77 2.79 2.64 2.07 1.98 2.29 3.05 2.94 2.25 1.72 1.59 1.97 1.55 1.40 1.14 1.44 1.09 1.20 1.45 1.56 1.27 0.89 0.80 1.09 0.92 0.99 1.45 1.07 0.79 0.80 1.14 1.66 1.62 0.42 0.59 0.74 0.40 0.19 0.18 0.19 0.56 0.30 0.12
1.12 1.40 1.75 1.90 2.12 1.82 2.24 2.89 2.96 2.04 1.56 1.61 1.56 1.64 1.66 1.43 1.17 1.14 1.28 1.57 2.13 1.81 2.04 1.79 1.91 1.50 1.13 1.59 1.76 1.93 1.81 2.43 2.57 1.88 1.10 0.67 0.73 0.52 0.45 0.46 0.50 0.24 0.56 0.40 0.15
1.37 1.51 1.68 1.29 1.91 2.18 2.60 2.88 1.81 0.99 1.34 1.47 1.33 1.48 1.57 1.26 1.37 0.97 1.33 1.36 1.11 0.74 1.59 1.85 1.98 1.53 1.21 1.56 2.05 1.74 1.75 1.78 1.31 0.89 0.47 0.37 0.57 0.65 0.64 0.52 0.49 0.25 0.51 0.45 0.17
1.86 1.56 1.96 1.52 1.92 2.58 2.58 2.31 1.07 1.21 1.43 1.87 1.75 1.94 1.45 1.03 1.21 1.24 1.27 0.71 0.59 0.44 1.03 0.68 1.20 0.99 0.90 1.08 1.63 1.61 1.19 1.07 0.87 0.48 0.56 0.43 0.34 0.52 0.76 0.86 0.65 0.45 0.59 0.57 0.18
1.68 2.02 2.19 1.40 1.96 3.00 2.89 1.64 1.14 1.34 1.60 1.33 1.38 0.80 0.75 0.80 0.95 0.95 0.86 0.36 0.27 0.14 0.28 0.35 1.09 1.04 1.09 1.44 1.43 1.27 0.69 0.87 1.56 1.09 0.78 0.35 0.38 0.98 0.88 1.05 0.99 0.73 0.88 0.74 0.33
1.51 2.01 1.92 1.61 2.68 3.69 2.66 1.62 1.33 1.05 1.11 0.80 0.24 0.20 0.17 0.34 0.43 0.66 0.54 0.28 0.10 0.07 0.17 0.47 1.01 1.28 1.53 1.60 1.21 1.06 1.00 0.63 0.67 0.46 0.62 0.47 0.81 1.29 1.37 1.63 1.55 1.37 1.31 1.34 0.92
1.45 2.03 1.73 2.21 3.35 2.67 1.73 1.41 1.48 0.94 0.65 0.54 0.25 0.23 0.20 0.19 0.26 0.65 0.68 0.20 0.05 0.03 0.14 0.44 0.95 1.15 0.99 0.34 0.27 0.41 0.38 0.40 1.00 0.61 0.58 0.72 0.88 0.73 1.26 1.90 2.08 1.72 1.72 1.89 1.16
1.49 1.87 2.48 1.67 1.68 1.19 1.11 1.18 1.22 0.70 0.56 0.60 0.31 0.23 0.20 0.14 0.26 0.22 0.60 0.15 0.02 0.02 0.31 0.59 1.07 1.12 0.91 0.66 0.64 0.85 0.43 0.37 0.62 1.10 0.84 0.98 0.95 0.56 0.81 1.24 2.24 2.07 1.81 1.70 1.50
1.59 2.21 2.98 2.58 0.84 0.74 1.21 1.40 1.07 0.59 0.48 0.58 0.35 0.26 0.20 0.09 0.06 0.10 0.71 0.19 0.03 0.07 0.10 0.51 1.00 1.11 0.99 0.66 0.63 0.85 0.46 0.57 1.14 1.19 0.53 0.91 0.57 0.45 0.53 0.93 1.80 1.84 1.70 1.69 1.65
1.37 1.22 0.90 0.82 0.65 0.36 0.79 1.01 0.83 0.82 0.53 0.68 0.55 0.34 0.47 0.24 0.08 0.06 0.50 0.42 0.18 0.15 0.10 0.50 1.11 0.93 0.50 0.29 0.42 0.57 0.57 0.49 0.94 0.52 0.67 0.37 0.24 0.23 0.37 0.91 1.59 1.88 1.88 1.78 2.02
0.87 1.12 0.43 0.16 0.19 0.24 0.62 0.80 0.64 0.61 0.57 0.41 0.37 0.21 0.30 0.26 0.23 0.10 0.12 0.38 0.36 0.10 0.22 0.35 0.72 0.75 0.61 0.24 0.38 0.48 0.55 0.36 0.57 0.29 0.29 0.18 0.15 0.04 0.17 0.44 0.89 1.40 1.68 2.14 2.66
0.70 0.79 0.51 0.26 0.16 0.38 0.36 0.49 0.63 0.60 0.34 0.16 0.23 0.35 0.24 0.08 0.07 0.02 0.01 0.01 0.09 0.19 0.20 0.28 0.51 0.75 0.67 0.48 0.28 0.47 0.58 0.69 0.49 0.21 0.25 0.28 0.15 0.02 0.07 0.26 0.47 0.83 1.06 1.16 1.20